Location: Ch�ne-Bourg
(46.1931°N, 6.1966°E)
Time: 07:30:09
(UTC+00:00)

Daily predictions for brighter satellites

Satellite Brightness Start Highest point End
(mag) Time Altitude Azimuth Time Altitude Azimuth Time Altitude Azimuth
Cosmos 1814 Rocket 4.1 16:16:59 10° SSW 16:22:18 77° ESE 16:27:38 10° NNE
Cosmos 1980 4.4 16:18:27 10° S 16:23:35 36° ESE 16:28:43 10° NE
Cosmos 2221 2.5 16:23:18 10° S 16:27:37 68° E 16:31:55 10° NNE
H-2A R/B 3.0 16:26:41 10° S 16:30:28 76° WSW 16:34:22 10° NNW
Cosmos 1570 Rocket 4.2 16:26:27 10° SSW 16:31:46 79° WNW 16:37:05 10° NNE
Abrixas rocket 2.1 16:30:20 10° WNW 16:33:04 66° SSW 16:35:49 10° ESE
Cosmos 1500 Rocket 3.6 16:29:02 10° N 16:33:24 63° E 16:37:46 10° SSE
Meteor 2-2 Rocket 4.4 16:29:02 10° S 16:34:58 73° E 16:40:50 10° NNE
YAOGAN 6 2.6 16:31:42 10° SSE 16:35:20 67° ENE 16:38:58 10° N
CZ-4C R/B 3.1 16:35:26 10° NNE 16:39:04 88° ESE 16:42:42 10° SSW
NOSS 2-1 (C) 4.4 16:34:16 10° NW 16:39:22 89° ENE 16:46:36 10° SE
Cosmos 405 Rocket 2.7 16:37:43 10° N 16:41:37 70° ENE 16:45:34 10° SSE
ADEOS Rocket 3.8 16:36:28 10° NNE 16:44:08 84° WNW 16:51:56 10° SSW
NOSS 2-1 (D) 4.5 16:39:43 10° NW 16:44:50 85° SW 16:52:07 10° SE
Cosmos 405 3.4 16:42:24 10° SSW 16:45:52 64° WNW 16:49:20 10° N
YAOGAN 1 4.3 16:44:13 10° E 16:45:56 12° ENE 16:47:43 10° NE
Cosmos 389 Rocket 3.6 16:43:50 10° SE 16:46:33 22° E 16:49:18 10° NE
Cosmos 1943 Rocket 3.5 16:42:57 10° N 16:46:41 18° NE 16:50:05 11° E
H-2A R/B 2.9 16:46:14 10° S 16:50:35 69° WSW 16:54:48 10° NNW
BREEZE-M DEB (TANK) 1.4 16:49:13 10° WSW 16:51:31 87° N 16:53:03 17° ENE
Cosmos 2322 Rocket 4.5 16:48:09 10° W 16:51:41 17° NW 16:55:15 10° N
SL-16 R/B 3.4 16:49:18 10° SSE 16:53:29 22° E 16:56:52 13° ENE
USA 215 3.6 16:47:51 10° ENE 16:54:09 52° SE 17:00:30 10° SSW
Cosmos 1743 Rocket 3.8 16:51:15 10° NNW 16:55:45 74° W 17:00:09 10° S
CZ-2C R/B 4.1 16:52:18 10° ESE 16:55:59 21° ENE 16:59:34 10° NNE
COSMO-SKYMED 1 3.7 16:52:30 10° NE 16:56:00 23° E 16:59:29 10° SSE
Okean-O 4.0 16:54:10 10° ESE 16:57:15 19° ENE 17:00:20 10° NNE
Cosmos 2298 Rocket 4.2 16:52:13 10° NNW 16:57:33 79° WSW 17:02:50 10° SSE
Cosmos 2150 Rocket 4.1 16:53:46 10° NNW 16:58:57 83° WSW 17:04:05 10° SSE
Cosmos 1818 3.6 16:54:53 10° NW 17:00:23 88° ENE 17:05:51 10° SE
AQUARIUS 4.1 16:56:45 10° SSE 17:01:14 82° ENE 17:05:45 10° NNW
Cosmos 1606 3.1 17:00:26 10° SSE 17:04:08 43° E 17:07:50 10° NNE
Sich 1 3.1 17:00:34 10° N 17:04:53 52° ENE 17:09:09 10° SSE
BREEZE-M TANK 4.0 16:59:55 10° WNW 17:06:01 41° SSW 17:09:11 10° SE
Okean O Rocket 1.7 17:03:54 10° SSE 17:08:15 83° WSW 17:12:39 10° NNW
Cosmos 2333 Rocket 3.5 17:03:44 10° WSW 17:09:00 38° NW 17:14:17 10° NNE
Cosmos 2366 rocket 4.5 17:03:50 10° N 17:09:31 36° ENE 17:15:07 10° SE
Helios 1A Rocket 4.1 17:07:32 14° ESE 17:09:50 22° ENE 17:12:55 10° NNE
Nadezhda 1 Rocket 4.2 17:05:22 10° S 17:11:41 82° W 17:18:08 10° N
ISS -3.8 17:08:21 10° WSW 17:11:43 85° SSE 17:13:33 25° ENE
Cosmos 1125 Rocket 3.5 17:08:32 10° NNW 17:13:46 87° WSW 17:18:59 10° SSE
COSMOS 2428 3.8 17:09:00 10° SW 17:14:27 44° NW 17:19:56 10° NNE
Cosmos 1356 3.5 17:11:16 10° N 17:14:38 50° ENE 17:17:58 10° SSE
Cosmos 1805 Rocket 3.6 17:11:20 10° N 17:15:51 90° W 17:20:17 10° S
Feng Yun 1-1 Rocket 4.3 17:10:26 10° SSE 17:16:08 60° ENE 17:21:43 10° N
SAR-Lupe-4 4.3 17:15:58 23° ENE 17:17:20 31° E 17:20:33 10° SSE
CZ-4B R/B 1.1 17:17:16 16° NNE 17:19:37 64° ESE 17:22:40 10° S
Cosmos 2278 Rocket 2.9 17:15:23 10° NNW 17:20:57 57° WSW 17:26:29 10° S
Cosmos 1151 Rocket 3.7 17:17:35 10° SSE 17:21:25 32° E 17:23:24 21° NE
Cosmos 1666 Rocket 3.7 17:17:44 10° N 17:22:02 51° ENE 17:26:20 10° SSE
IRS-1C Rocket 4.1 17:20:26 10° SE 17:25:34 55° ENE 17:30:44 10° N
Cosmos 1328 Rocket 4.1 17:23:28 10° SSE 17:27:19 33° E 17:28:37 27° ENE
USA 267 3.3 17:21:44 14° ESE 17:27:21 64° NNE 17:33:49 10° NW
Cosmos 962 Rocket 4.5 17:21:29 10° N 17:27:50 85° E 17:34:04 10° S
Lacrosse 5 rocket 2.6 17:25:30 10° S 17:28:07 20° SE 17:28:07 20° SE
ERS-2 2.0 17:29:45 13° NNE 17:32:57 83° ESE 17:36:37 10° SSW
Cosmos 2341 Rocket 4.0 17:27:50 10° N 17:34:10 85° E 17:40:30 10° S
NOSS 0 Rocket 4.4 17:28:09 10° SW 17:34:19 61° WNW 17:40:31 10° NNE
SAR-Lupe-1 4.3 17:33:31 36° NE 17:34:32 47° E 17:38:00 10° S
SL-24 R/B 4.1 17:32:45 26° NE 17:34:39 44° E 17:38:17 10° S
Meteor 1-25 Rocket 4.2 17:29:20 10° N 17:34:53 59° ENE 17:40:28 10° SSE
CZ-2D R/B 3.3 17:31:31 10° SSE 17:35:12 51° ENE 17:38:57 10° N
CZ-4 R/B 1.7 17:38:23 39° ENE 17:38:31 39° ENE 17:42:15 10° N
Cosmos 2219 Rocket 4.0 17:35:31 10° WSW 17:40:13 26° NW 17:44:56 10° N
H-2A R/B 3.8 17:37:29 10° N 17:41:09 30° WNW 17:44:50 10° SW
TELKOM 3 3.4 17:39:15 10° WSW 17:41:32 60° WSW 17:41:32 60° WSW
CZ-3B R/B 3.6 17:41:40 10° S 17:42:22 12° SSE 17:42:22 12° SSE
BREEZE-M DEB (TANK) 2.2 17:41:16 10° WSW 17:43:13 51° SW 17:43:13 51° SW
SKYMED 2 3.4 17:40:45 15° NNE 17:44:19 72° ESE 17:48:39 10° S
USA 81 3.9 17:40:30 10° N 17:45:48 74° E 17:51:04 10° S
SL-24 DEB 4.4 17:42:59 10° NNE 17:47:39 51° E 17:52:14 10° SSE
CREW DRAGON DEMO-1 DEB 3.1 17:45:10 10° WNW 17:47:43 54° NNW 17:47:43 54° NNW
Cosmos 2285 Rocket 3.9 17:42:50 10° NNW 17:49:15 66° ENE 17:55:33 10° SSE
Cosmos 2237 Rocket 2.8 17:43:45 10° SW 17:49:16 56° WNW 17:54:26 12° NNE
Cosmos 1939 Rocket 3.0 17:47:04 10° S 17:50:53 72° WSW 17:54:48 10° NNW
Cosmos 1633 Rocket 2.9 17:48:22 10° N 17:52:47 87° E 17:57:09 10° S
H-2A R/B 2.3 17:52:26 34° ESE 17:53:59 43° ENE 17:58:55 10° N
Cosmos 773 Rocket 4.1 17:53:13 10° S 17:58:17 52° ESE 17:59:15 46° ENE
SL-8 Rocket 4.0 17:52:05 10° N 17:58:20 84° W 18:04:36 10° S
Cosmos 864 Rocket 4.4 17:52:00 10° N 17:58:23 78° E 18:04:38 10° SSE
CSL-04 Rocket 3.8 18:01:44 45° ENE 18:01:49 45° ENE 18:06:52 10° N
USA 281 3.1 17:55:17 10° SSE 18:01:51 84° ENE 18:08:28 10° NNW
Cosmos 2369 Rocket 2.8 17:57:25 10° NNW 18:02:10 36° NE 18:02:10 36° NE
Cosmos 783 Rocket 4.4 17:59:31 10° SSW 18:04:49 82° ESE 18:07:11 34° NNE
Cosmos 2181 Rocket 4.1 17:58:24 10° S 18:04:50 84° W 18:11:17 10° N
MOS 1 Rocket 3.6 18:03:47 37° NE 18:05:44 58° E 18:11:05 10° S
Cosmos 1821 Rocket 4.2 18:06:05 10° N 18:11:29 45° ENE 18:11:29 45° ENE
Cosmos 1241 Rocket 4.4 18:07:57 10° NNW 18:14:35 76° NE 18:17:23 37° SE
YAOGAN 1 2.5 18:21:23 82° WSW 18:21:23 82° WSW 18:25:45 10° NNW
SL-08 R/B 4.3 18:20:53 10° N 18:27:06 83° E 18:33:12 10° S
Cosmos 1470 Rocket 4.0 18:23:51 10° NNW 18:27:22 55° NW 18:27:22 55° NW
Cosmos 2297 4.1 18:22:35 10° NNW 18:28:11 61° WSW 18:33:47 10° S
Cosmos 1943 Rocket 2.0 18:25:42 10° NNW 18:31:17 86° ENE 18:31:41 77° SE
Meteor 1-14 Rocket 4.3 18:25:34 10° NNW 18:31:32 88° W 18:37:31 10° S
Cosmos 44 3.6 18:26:20 10° NW 18:31:38 73° WSW 18:32:40 56° S
COSMO-SKYMED 1 4.0 18:29:20 17° N 18:32:16 37° WNW 18:36:15 10° SW
Okean-O 3.3 18:29:02 10° S 18:33:21 52° W 18:37:42 10° NNW
CZ-2C R/B 3.5 18:30:24 10° S 18:35:30 58° W 18:40:23 10° NNW
ARGOS 3.9 18:38:30 40° N 18:38:30 40° N 18:41:58 10° N
Cosmos 1867 4.1 18:31:28 10° SW 18:36:47 54° NW 18:37:58 45° N
SL-16 R/B 2.5 18:31:29 10° SW 18:37:05 63° WNW 18:38:47 43° N
USA 215 3.5 18:35:13 43° NNE 18:37:15 60° NNW 18:43:39 10° WSW
Helios 1A Rocket 4.3 18:43:48 31° SW 18:44:47 36° W 18:48:32 10° NNW
ISS -0.7 18:45:41 10° WNW 18:46:31 16° WNW 18:46:31 16° WNW
Lacrosse 5 rocket 4.2 19:03:26 10° WSW 19:03:47 12° WSW 19:03:47 12° WSW
USA 267 3.9 19:09:07 42° SSW 19:10:31 48° SW 19:16:48 10° WNW
CZ-4 R/B 4.1 19:14:25 17° WNW 19:14:25 17° WNW 19:16:29 10° NW
ATLAS CENTAUR R/B 4.4 19:06:41 10° NW 19:24:39 57° WSW 19:27:27 42° S
H-2A R/B 3.9 19:33:04 28° WSW 19:33:32 28° W 19:38:02 10° NW
Cosmos 2369 Rocket 4.1 19:41:28 10° NW 19:43:59 25° NW 19:43:59 25° NW
